When you browse on this site, cookies collect data to enhance your experience and personalize the content and advertising you see.
Visit our Privacy Policy to learn more. By continuing to use the site, you agree to this use of cookies and data.
  • In Portugal
  • List of Countries
  • For 7 days
  • Water Temperature
  • Weather Map
  • Weather Widgets
  • user-avatar
    Login

    Hourly Weather Ghadamis

    Today, 7 April, Tuesday

    Time Temperature Precipitation Wind Pressure Humidity
    00:00 +19°C° 0 mm 3 mps 736 mmHg 18%
    01:00 +19°C° 0 mm 3 mps 736 mmHg 18%
    02:00 +18°C° 0 mm 3 mps 735 mmHg 20%
    03:00 +18°C° 0 mm 3 mps 735 mmHg 22%
    04:00 +17°C° 0 mm 4 mps 735 mmHg 23%
    05:00 +17°C° 0 mm 3 mps 735 mmHg 25%
    06:00 +17°C° 0 mm 3 mps 735 mmHg 28%
    07:00 +17°C° 0 mm 3 mps 736 mmHg 30%
    08:00 +19°C° 0 mm 3 mps 736 mmHg 27%
    09:00 +21°C° 0 mm 4 mps 737 mmHg 24%
    10:00 +23°C° 0 mm 4 mps 737 mmHg 22%
    11:00 +25°C° 0 mm 4 mps 737 mmHg 21%
    12:00 +26°C° 0 mm 3 mps 737 mmHg 20%
    13:00 +27°C° 0 mm 3 mps 736 mmHg 19%
    14:00 +27°C° 0 mm 4 mps 736 mmHg 18%
    15:00 +27°C° 0 mm 4 mps 735 mmHg 18%
    16:00 +28°C° 0 mm 4 mps 735 mmHg 17%
    17:00 +27°C° 0 mm 5 mps 735 mmHg 19%
    18:00 +26°C° 0 mm 5 mps 735 mmHg 21%
    19:00 +25°C° 0 mm 5 mps 735 mmHg 23%
    20:00 +22°C° 0 mm 5 mps 736 mmHg 27%
    21:00 +21°C° 0 mm 6 mps 736 mmHg 30%
    22:00 +20°C° 0 mm 7 mps 736 mmHg 34%
    23:00 +19°C° 0 mm 6 mps 736 mmHg 35%

    Tomorrow, 8 April, Wednesday

    Time Temperature Precipitation Wind Pressure Humidity
    00:00 +19°C° 0 mm 5 mps 736 mmHg 36%
    01:00 +18°C° 0 mm 4 mps 736 mmHg 37%
    02:00 +18°C° 0 mm 4 mps 736 mmHg 37%
    03:00 +17°C° 0 mm 3 mps 736 mmHg 36%
    04:00 +17°C° 0 mm 3 mps 735 mmHg 36%
    05:00 +16°C° 0 mm 3 mps 735 mmHg 39%
    06:00 +16°C° 0 mm 3 mps 736 mmHg 41%
    07:00 +16°C° 0 mm 3 mps 736 mmHg 43%
    08:00 +18°C° 0 mm 3 mps 736 mmHg 40%
    09:00 +20°C° 0 mm 3 mps 736 mmHg 36%
    10:00 +22°C° 0 mm 4 mps 737 mmHg 32%
    11:00 +23°C° 0 mm 4 mps 736 mmHg 30%
    12:00 +25°C° 0 mm 4 mps 736 mmHg 27%
    13:00 +26°C° 0 mm 4 mps 736 mmHg 25%
    14:00 +26°C° 0 mm 4 mps 735 mmHg 24%
    15:00 +26°C° 0 mm 5 mps 735 mmHg 23%
    16:00 +27°C° 0 mm 6 mps 734 mmHg 22%
    17:00 +26°C° 0 mm 5 mps 734 mmHg 23%
    18:00 +23°C° 0 mm 5 mps 734 mmHg 24%
    19:00 +22°C° 0 mm 5 mps 734 mmHg 25%
    20:00 +21°C° 0 mm 5 mps 735 mmHg 27%
    21:00 +20°C° 0 mm 6 mps 736 mmHg 28%
    22:00 +19°C° 0 mm 6 mps 736 mmHg 29%
    23:00 +17°C° 0 mm 6 mps 736 mmHg 35%

    Day after tomorrow, 9 April, Thursday

    Time Temperature Precipitation Wind Pressure Humidity
    00:00 +16°C° 0 mm 6 mps 736 mmHg 40%
    01:00 +16°C° 0 mm 5 mps 736 mmHg 45%
    02:00 +15°C° 0 mm 5 mps 736 mmHg 47%
    03:00 +14°C° 0 mm 5 mps 735 mmHg 49%
    04:00 +14°C° 0 mm 5 mps 735 mmHg 51%
    05:00 +14°C° 0 mm 5 mps 735 mmHg 51%
    06:00 +14°C° 0 mm 5 mps 735 mmHg 51%
    07:00 +13°C° 0 mm 5 mps 735 mmHg 52%
    08:00 +15°C° 0 mm 4 mps 736 mmHg 46%
    09:00 +18°C° 0 mm 4 mps 736 mmHg 40%
    10:00 +20°C° 0 mm 4 mps 736 mmHg 34%
    11:00 +22°C° 0 mm 3 mps 736 mmHg 30%
    12:00 +24°C° 0 mm 3 mps 736 mmHg 26%
    13:00 +25°C° 0 mm 3 mps 735 mmHg 22%
    14:00 +25°C° 0 mm 3 mps 735 mmHg 22%
    15:00 +26°C° 0 mm 4 mps 734 mmHg 21%
    16:00 +26°C° 0 mm 4 mps 734 mmHg 21%
    17:00 +25°C° 0 mm 4 mps 734 mmHg 22%
    18:00 +23°C° 0 mm 4 mps 734 mmHg 23%
    19:00 +22°C° 0 mm 4 mps 734 mmHg 24%
    20:00 +21°C° 0 mm 4 mps 734 mmHg 23%
    21:00 +20°C° 0 mm 4 mps 735 mmHg 22%
    22:00 +20°C° 0 mm 4 mps 735 mmHg 20%
    23:00 +19°C° 0 mm 4 mps 735 mmHg 21%

    10 April, Friday

    Time Temperature Precipitation Wind Pressure Humidity
    00:00 +18°C° 0 mm 4 mps 735 mmHg 22%
    01:00 +17°C° 0 mm 4 mps 735 mmHg 23%
    02:00 +17°C° 0 mm 4 mps 735 mmHg 26%
    03:00 +15°C° 0 mm 4 mps 735 mmHg 29%
    04:00 +14°C° 0 mm 4 mps 735 mmHg 32%
    05:00 +15°C° 0 mm 4 mps 735 mmHg 33%
    06:00 +15°C° 0 mm 4 mps 735 mmHg 34%
    07:00 +15°C° 0 mm 4 mps 735 mmHg 35%
    08:00 +18°C° 0 mm 4 mps 736 mmHg 32%
    09:00 +20°C° 0 mm 4 mps 736 mmHg 28%
    10:00 +22°C° 0 mm 4 mps 736 mmHg 25%
    11:00 +23°C° 0 mm 4 mps 736 mmHg 23%
    12:00 +25°C° 0 mm 3 mps 735 mmHg 20%
    13:00 +27°C° 0 mm 3 mps 735 mmHg 18%
    14:00 +27°C° 0 mm 3 mps 735 mmHg 17%
    15:00 +27°C° 0 mm 3 mps 734 mmHg 17%
    16:00 +28°C° 0 mm 4 mps 734 mmHg 16%
    17:00 +27°C° 0 mm 4 mps 734 mmHg 16%
    18:00 +26°C° 0 mm 4 mps 734 mmHg 17%
    19:00 +23°C° 0 mm 4 mps 734 mmHg 18%
    20:00 +22°C° 0 mm 5 mps 734 mmHg 19%
    21:00 +22°C° 0 mm 5 mps 734 mmHg 20%
    22:00 +21°C° 0 mm 5 mps 735 mmHg 21%
    23:00 +20°C° 0 mm 5 mps 735 mmHg 22%

    11 April, Saturday

    Time Temperature Precipitation Wind Pressure Humidity
    00:00 +19°C° 0 mm 5 mps 735 mmHg 24%
    01:00 +17°C° 0 mm 5 mps 735 mmHg 25%
    02:00 +17°C° 0 mm 5 mps 735 mmHg 25%
    03:00 +17°C° 0 mm 6 mps 735 mmHg 24%
    04:00 +17°C° 0 mm 6 mps 734 mmHg 24%
    05:00 +17°C° 0 mm 6 mps 735 mmHg 25%
    06:00 +17°C° 0 mm 6 mps 735 mmHg 26%
    07:00 +17°C° 0 mm 6 mps 735 mmHg 27%
    08:00 +20°C° 0 mm 6 mps 735 mmHg 23%
    09:00 +22°C° 0 mm 6 mps 735 mmHg 20%
    10:00 +24°C° 0 mm 6 mps 736 mmHg 16%
    11:00 +26°C° 0 mm 5 mps 735 mmHg 16%
    12:00 +27°C° 0 mm 4 mps 735 mmHg 15%
    13:00 +28°C° 0 mm 4 mps 735 mmHg 15%
    14:00 +29°C° 0 mm 4 mps 734 mmHg 14%
    15:00 +29°C° 0 mm 4 mps 734 mmHg 14%
    16:00 +29°C° 0 mm 5 mps 733 mmHg 14%
    17:00 +28°C° 0 mm 5 mps 733 mmHg 15%
    18:00 +27°C° 0 mm 4 mps 733 mmHg 16%
    19:00 +26°C° 0 mm 4 mps 733 mmHg 17%
    20:00 +25°C° 0 mm 5 mps 734 mmHg 19%
    21:00 +23°C° 0 mm 5 mps 734 mmHg 22%
    22:00 +22°C° 0 mm 5 mps 735 mmHg 24%
    23:00 +21°C° 0 mm 5 mps 735 mmHg 25%

    12 April, Sunday

    Time Temperature Precipitation Wind Pressure Humidity
    00:00 +20°C° 0 mm 5 mps 735 mmHg 25%
    01:00 +19°C° 0 mm 5 mps 735 mmHg 26%
    02:00 +19°C° 0 mm 5 mps 734 mmHg 25%
    03:00 +17°C° 0 mm 5 mps 734 mmHg 23%
    04:00 +18°C° 0 mm 4 mps 734 mmHg 22%
    05:00 +18°C° 0 mm 4 mps 734 mmHg 23%
    06:00 +18°C° 0 mm 4 mps 734 mmHg 24%
    07:00 +18°C° 0 mm 4 mps 734 mmHg 25%
    08:00 +21°C° 0 mm 4 mps 734 mmHg 22%
    09:00 +23°C° 0 mm 4 mps 734 mmHg 19%
    10:00 +27°C° 0 mm 4 mps 735 mmHg 16%
    11:00 +28°C° 0 mm 3 mps 734 mmHg 15%
    12:00 +29°C° 0 mm 2 mps 734 mmHg 14%
    13:00 +30°C° 0 mm 2 mps 734 mmHg 13%
    14:00 +31°C° 0 mm 2 mps 733 mmHg 13%
    15:00 +31°C° 0 mm 2 mps 732 mmHg 12%
    16:00 +32°C° 0 mm 2 mps 732 mmHg 12%
    17:00 +31°C° 0 mm 3 mps 732 mmHg 13%
    18:00 +29°C° 0 mm 3 mps 732 mmHg 14%
    19:00 +28°C° 0 mm 4 mps 731 mmHg 15%
    20:00 +28°C° 0 mm 4 mps 732 mmHg 15%
    21:00 +27°C° 0 mm 4 mps 732 mmHg 16%
    22:00 +26°C° 0 mm 4 mps 732 mmHg 16%
    23:00 +25°C° 0 mm 4 mps 732 mmHg 17%
    Show more